Location: Leuk
(46.3174°N, 7.6341°E)
Time: 12:27:28
(UTC+00:00)

Cosmos 1500 - Pass Details

Date: 09 March 2021
Orbit: 499 x 517 km, 82.5° (Epoch: 19 April)

Event Time Altitude Azimuth Distance (km) Brightness Sun altitude
Rises 04:46:21 0° 352° (N) 2,625 6.8 -12.4°
Reaches altitude 10° 04:48:28 10° 353° (N) 1,738 5.9 -12.1°
Maximum altitude 04:52:17 80° 81° (E) 527 3.3 -11.4°
Drops below altitude 10° 04:56:06 10° 168° (SSE) 1,734 6.0 -10.8°
Sets 04:58:13 0° 170° (S) 2,618 6.9 -10.4°
